When you browse on this site, cookies collect data to enhance your experience and personalize the content and advertising you see.
Visit our Privacy Policy to learn more. By continuing to use the site, you agree to this use of cookies and data.
  • In France
  • List of Countries
  • For 7 days
  • Water Temperature
  • Satellite Maps
  • Weather Map
  • Weather Widgets
  • user-avatar
    Login

    Hourly Weather Algiers

    Today, 24 March, Sunday

    Time Temperature Precipitation Wind Pressure Humidity
    00:00 +13°C° 0 mm 2 mps 754 mmHg 81%
    01:00 +13°C° 0 mm 2 mps 754 mmHg 80%
    02:00 +13°C° 0 mm 2 mps 753 mmHg 79%
    03:00 +13°C° 0 mm 2 mps 753 mmHg 77%
    04:00 +13°C° 0 mm 2 mps 753 mmHg 75%
    05:00 +13°C° 0 mm 2 mps 753 mmHg 74%
    06:00 +13°C° 0 mm 2 mps 753 mmHg 72%
    07:00 +14°C° 0 mm 2 mps 753 mmHg 66%
    08:00 +16°C° 0 mm 2 mps 753 mmHg 61%
    09:00 +18°C° 0 mm 2 mps 754 mmHg 55%
    10:00 +19°C° 0 mm 2 mps 753 mmHg 52%
    11:00 +20°C° 0 mm 3 mps 753 mmHg 49%
    12:00 +22°C° 0 mm 3 mps 753 mmHg 46%
    13:00 +21°C° 0 mm 3 mps 753 mmHg 49%
    14:00 +21°C° 0 mm 4 mps 752 mmHg 51%
    15:00 +21°C° 0 mm 4 mps 752 mmHg 54%
    16:00 +19°C° 0 mm 4 mps 752 mmHg 60%
    17:00 +18°C° 0 mm 3 mps 752 mmHg 65%
    18:00 +17°C° 0 mm 3 mps 752 mmHg 70%
    19:00 +17°C° 0 mm 3 mps 752 mmHg 69%
    20:00 +17°C° 0 mm 2 mps 752 mmHg 69%
    21:00 +18°C° 0 mm 1 mps 753 mmHg 68%
    22:00 +18°C° 0 mm 1 mps 753 mmHg 66%
    23:00 +18°C° 0 mm 1 mps 753 mmHg 64%

    Tomorrow, 25 March, Monday

    Time Temperature Precipitation Wind Pressure Humidity
    00:00 +18°C° 0 mm 1 mps 753 mmHg 62%
    01:00 +16°C° 0 mm 1 mps 752 mmHg 62%
    02:00 +16°C° 0 mm 1 mps 752 mmHg 62%
    03:00 +15°C° 0 mm 1 mps 751 mmHg 61%
    04:00 +15°C° 0 mm 1 mps 751 mmHg 60%
    05:00 +15°C° 0 mm 1 mps 751 mmHg 59%
    06:00 +15°C° 0 mm 1 mps 751 mmHg 57%
    07:00 +18°C° 0 mm 1 mps 751 mmHg 54%
    08:00 +19°C° 0 mm 1 mps 752 mmHg 51%
    09:00 +21°C° 0 mm 1 mps 752 mmHg 48%
    10:00 +22°C° 0 mm 1 mps 752 mmHg 45%
    11:00 +23°C° 0 mm 2 mps 751 mmHg 42%
    12:00 +24°C° 0 mm 2 mps 751 mmHg 40%
    13:00 +23°C° 0 mm 2 mps 750 mmHg 43%
    14:00 +22°C° 0 mm 3 mps 750 mmHg 46%
    15:00 +21°C° 0 mm 4 mps 749 mmHg 49%
    16:00 +20°C° 0 mm 4 mps 749 mmHg 56%
    17:00 +19°C° 0 mm 4 mps 749 mmHg 63%
    18:00 +17°C° 0 mm 4 mps 749 mmHg 71%
    19:00 +17°C° 0 mm 4 mps 749 mmHg 72%
    20:00 +16°C° 0 mm 3 mps 749 mmHg 74%
    21:00 +16°C° 0 mm 3 mps 750 mmHg 76%
    22:00 +14°C° 0 mm 3 mps 750 mmHg 76%
    23:00 +14°C° 0 mm 3 mps 749 mmHg 75%

    Day after tomorrow, 26 March, Tuesday

    Time Temperature Precipitation Wind Pressure Humidity
    00:00 +14°C° 0 mm 3 mps 749 mmHg 75%
    01:00 +14°C° 0 mm 3 mps 749 mmHg 75%
    02:00 +14°C° 0 mm 4 mps 749 mmHg 76%
    03:00 +14°C° 0 mm 4 mps 749 mmHg 76%
    04:00 +13°C° 0 mm 5 mps 749 mmHg 77%
    05:00 +13°C° 0 mm 6 mps 749 mmHg 78%
    06:00 +12°C° 0 mm 7 mps 749 mmHg 79%
    07:00 +14°C° 0 mm 7 mps 750 mmHg 75%
    08:00 +15°C° 0 mm 7 mps 750 mmHg 71%
    09:00 +15°C° 0 mm 8 mps 751 mmHg 67%
    10:00 +16°C° 0 mm 8 mps 751 mmHg 65%
    11:00 +16°C° 0 mm 8 mps 751 mmHg 62%
    12:00 +16°C° 0 mm 8 mps 752 mmHg 59%
    13:00 +15°C° 0 mm 8 mps 751 mmHg 59%
    14:00 +14°C° 0 mm 7 mps 751 mmHg 59%
    15:00 +12°C° 0 mm 7 mps 751 mmHg 59%
    16:00 +12°C° 0 mm 7 mps 751 mmHg 61%
    17:00 +11°C° 0 mm 7 mps 751 mmHg 63%
    18:00 +11°C° 0 mm 6 mps 751 mmHg 64%
    19:00 +11°C° 0 mm 6 mps 752 mmHg 66%
    20:00 +10°C° 0 mm 6 mps 752 mmHg 67%
    21:00 +10°C° 0 mm 6 mps 753 mmHg 69%
    22:00 +10°C° 0 mm 6 mps 753 mmHg 69%
    23:00 +10°C° 0 mm 6 mps 752 mmHg 69%

    27 March, Wednesday

    Time Temperature Precipitation Wind Pressure Humidity
    00:00 +10°C° 0 mm 7 mps 752 mmHg 69%
    01:00 +10°C° 0 mm 6 mps 752 mmHg 69%
    02:00 +10°C° 0 mm 6 mps 752 mmHg 69%
    03:00 +10°C° 0 mm 6 mps 752 mmHg 70%
    04:00 +10°C° 0.1 mm 6 mps 752 mmHg 70%
    05:00 +10°C° 0.1 mm 6 mps 752 mmHg 71%
    06:00 +10°C° 0.1 mm 6 mps 752 mmHg 72%
    07:00 +10°C° 0 mm 6 mps 752 mmHg 70%
    08:00 +11°C° 0 mm 6 mps 752 mmHg 68%
    09:00 +11°C° 0 mm 6 mps 752 mmHg 66%
    10:00 +13°C° 0 mm 6 mps 752 mmHg 63%
    11:00 +14°C° 0 mm 7 mps 752 mmHg 61%
    12:00 +14°C° 0 mm 7 mps 751 mmHg 59%
    13:00 +14°C° 0 mm 6 mps 751 mmHg 60%
    14:00 +14°C° 0 mm 6 mps 751 mmHg 61%
    15:00 +14°C° 0 mm 6 mps 751 mmHg 62%
    16:00 +13°C° 0 mm 6 mps 751 mmHg 64%
    17:00 +13°C° 0 mm 5 mps 751 mmHg 66%
    18:00 +12°C° 0 mm 5 mps 751 mmHg 68%
    19:00 +12°C° 0 mm 5 mps 752 mmHg 69%
    20:00 +12°C° 0 mm 4 mps 752 mmHg 70%
    21:00 +12°C° 0 mm 4 mps 752 mmHg 71%
    22:00 +12°C° 0 mm 4 mps 752 mmHg 72%
    23:00 +11°C° 0 mm 4 mps 752 mmHg 73%

    28 March, Thursday

    Time Temperature Precipitation Wind Pressure Humidity
    00:00 +11°C° 0 mm 4 mps 752 mmHg 75%
    01:00 +11°C° 0 mm 4 mps 752 mmHg 76%
    02:00 +11°C° 0 mm 4 mps 752 mmHg 77%
    03:00 +11°C° 0 mm 3 mps 752 mmHg 78%
    04:00 +11°C° 0 mm 3 mps 752 mmHg 78%
    05:00 +11°C° 0 mm 3 mps 753 mmHg 78%
    06:00 +11°C° 0 mm 3 mps 753 mmHg 79%
    07:00 +12°C° 0.1 mm 3 mps 753 mmHg 74%
    08:00 +13°C° 0.1 mm 3 mps 753 mmHg 69%
    09:00 +14°C° 0.1 mm 3 mps 754 mmHg 64%
    10:00 +14°C° 0 mm 3 mps 754 mmHg 62%
    11:00 +16°C° 0 mm 3 mps 754 mmHg 59%
    12:00 +17°C° 0 mm 3 mps 754 mmHg 57%
    13:00 +17°C° 0 mm 4 mps 753 mmHg 58%
    14:00 +17°C° 0 mm 4 mps 753 mmHg 59%
    15:00 +16°C° 0 mm 5 mps 753 mmHg 60%
    16:00 +15°C° 0 mm 4 mps 753 mmHg 64%
    17:00 +14°C° 0 mm 4 mps 753 mmHg 68%
    18:00 +13°C° 0 mm 4 mps 753 mmHg 72%
    19:00 +13°C° 0 mm 3 mps 754 mmHg 75%
    20:00 +12°C° 0 mm 3 mps 754 mmHg 77%
    21:00 +13°C° 0 mm 2 mps 755 mmHg 79%
    22:00 +13°C° 0 mm 2 mps 755 mmHg 80%
    23:00 +12°C° 0 mm 2 mps 755 mmHg 80%

    29 March, Friday

    Time Temperature Precipitation Wind Pressure Humidity
    00:00 +12°C° 0 mm 1 mps 755 mmHg 81%
    01:00 +12°C° 0 mm 1 mps 755 mmHg 81%
    02:00 +12°C° 0 mm 1 mps 754 mmHg 82%
    03:00 +11°C° 0 mm 1 mps 754 mmHg 82%
    04:00 +11°C° 0 mm 1 mps 754 mmHg 82%
    05:00 +11°C° 0 mm 1 mps 754 mmHg 81%
    06:00 +11°C° 0 mm 1 mps 755 mmHg 81%
    07:00 +13°C° 0 mm 1 mps 755 mmHg 74%
    08:00 +14°C° 0 mm 2 mps 755 mmHg 67%
    09:00 +16°C° 0 mm 2 mps 755 mmHg 60%
    10:00 +17°C° 0 mm 3 mps 755 mmHg 57%
    11:00 +18°C° 0 mm 3 mps 754 mmHg 54%
    12:00 +19°C° 0 mm 4 mps 754 mmHg 52%
    13:00 +18°C° 0 mm 4 mps 754 mmHg 54%
    14:00 +17°C° 0 mm 5 mps 753 mmHg 56%
    15:00 +17°C° 0 mm 5 mps 753 mmHg 58%
    16:00 +16°C° 0 mm 5 mps 753 mmHg 63%
    17:00 +15°C° 0 mm 5 mps 753 mmHg 68%
    18:00 +14°C° 0 mm 5 mps 753 mmHg 73%
    19:00 +14°C° 0 mm 5 mps 753 mmHg 74%
    20:00 +14°C° 0 mm 4 mps 753 mmHg 75%
    21:00 +13°C° 0 mm 4 mps 754 mmHg 77%
    22:00 +13°C° 0 mm 4 mps 754 mmHg 77%
    23:00 +13°C° 0 mm 3 mps 753 mmHg 78%
    Show more